Location: L�Ave Maria
(50.7161°N, 1.5911°E)
Time: 13:19:41
(UTC+00:00)

Thor Agena Rocket - Pass Details

Date: 10 July 2020
Orbit: 759 x 808 km, 99.0° (Epoch: 07 August)

Event Time Altitude Azimuth Distance (km) Brightness Sun altitude
Rises 23:04:32 0° 14° (NNE) 3,261 7.9 -16.2°
Reaches altitude 10° 23:06:51 10° 13° (NNE) 2,323 7.0 -16.3°
Maximum altitude 23:11:57 77° 289° (WNW) 790 3.6 -16.5°
Enters shadow 23:15:22 21° 206° (SSW) 1,657 4.8 -16.6°
